Bridgeport, WV

1:58 PM EDT on August 30, 2016 (GMT -0400)
Benedum

Weather History for KCKB - January, 2014

Change the Weather History Date:

Tuesday, January 21, 2014

  Actual Average Record
Temperature  
Mean Temperature 20 °F -  
Max Temperature 32 °F 37 °F 71 °F (1951)
Min Temperature 8 °F 19 °F -16 °F (1984)
Degree Days  
Heating Degree Days 44    
Moisture  
Dew Point 16 °F    
Average Humidity 80    
Maximum Humidity 92    
Minimum Humidity 56    
Precipitation  
Precipitation 0.19 in - - ()
Sea Level Pressure  
Sea Level Pressure 29.83 in    
Wind  
Wind Speed 12 mph (North)    
Max Wind Speed 25 mph    
Max Gust Speed 33 mph    
Visibility 3 miles    
Events Fog , Snow    
Averages and records for this station are not official NWS values.
T = Trace of Precipitation, MM = Missing Value Source: NWS Daily Summary

Daily Weather History Graph

Daily Weather History Graph

Search for Another Location

Airport or City:

Trip Planner

Search our weather history database for the weather conditions in past years. The results will help you decide how hot, cold, wet, or windy it might be!

Date:

Astronomy

Jan. 21, 2014 Rise Set
Actual Time 7:36 AM EST 5:28 PM EST
Civil Twilight 7:07 AM EST 5:57 PM EST
Nautical Twilight 6:34 AM EST 6:30 PM EST
Astronomical Twilight 6:02 AM EST 7:02 PM EST
Moon 10:57 PM EST (1/21) 10:07 AM EST (1/21)
Length of Visible Light 10h 50m
Length of Day
9h 52m
Waning Gibbous, 75% of the Moon is Illuminated
Jan 21
Waning Gibbous
Jan 24
Last Quarter
Jan 30
New
Feb 6
First Quarter
Feb 14
Full

Hourly Weather History & Observations

Time (EST) Temp. Windchill Dew Point Humidity Pressure Visibility Wind Dir Wind Speed Gust Speed Precip Events Conditions
12:53 AM 32.0 °F 26.4 °F 26.1 °F 79% 29.85 in 10.0 mi NNE 5.8 mph - N/A   Overcast
1:53 AM 30.9 °F 22.2 °F 27.0 °F 85% 29.84 in 8.0 mi NNE 10.4 mph - N/A   Overcast
2:14 AM 30.9 °F 22.8 °F 27.0 °F 85% 29.82 in 3.0 mi NNE 9.2 mph - 0.00 in Snow Light Snow
2:40 AM 30.9 °F 23.5 °F 27.0 °F 85% 29.81 in 2.5 mi NNE 8.1 mph - 0.00 in Snow Light Snow
2:46 AM 30.0 °F 21.7 °F 27.0 °F 88% 29.81 in 1.8 mi NNE 9.2 mph - 0.00 in Snow Light Snow
2:53 AM 30.0 °F 21.7 °F 27.0 °F 88% 29.82 in 2.0 mi NNE 9.2 mph - 0.00 in Snow Light Snow
3:17 AM 30.0 °F 21.7 °F 27.0 °F 88% 29.80 in 4.0 mi NNE 9.2 mph - 0.00 in Snow Light Snow
3:53 AM 28.9 °F 21.1 °F 26.1 °F 89% 29.80 in 9.0 mi NE 8.1 mph - 0.00 in   Overcast
4:53 AM 28.0 °F 18.1 °F 25.0 °F 88% 29.77 in 4.0 mi NNE 11.5 mph - 0.00 in Snow Light Snow
5:04 AM 28.0 °F 19.3 °F 25.0 °F 88% 29.75 in 2.0 mi North 9.2 mph - 0.00 in Snow Light Snow
5:06 AM 28.0 °F 20.0 °F 25.0 °F 88% 29.75 in 1.8 mi NNE 8.1 mph - 0.00 in Snow Light Snow
5:53 AM 27.0 °F 18.7 °F 24.1 °F 89% 29.75 in 1.5 mi North 8.1 mph - 0.01 in Snow Light Snow
6:14 AM 26.1 °F 17.6 °F 24.1 °F 92% 29.74 in 1.2 mi North 8.1 mph - 0.01 in Snow Light Snow
6:37 AM 26.1 °F 14.5 °F 23.0 °F 88% 29.75 in 0.5 mi North 13.8 mph - 0.03 in Fog , Snow Snow
6:53 AM 26.1 °F 15.0 °F 23.0 °F 88% 29.77 in 0.8 mi North 12.7 mph - 0.04 in Snow Light Snow
7:15 AM 26.1 °F 15.0 °F 23.0 °F 88% 29.75 in 0.5 mi North 12.7 mph - 0.02 in Fog , Snow Snow
7:33 AM 25.0 °F 13.6 °F 21.9 °F 88% 29.76 in 1.0 mi North 12.7 mph - 0.03 in Snow Light Snow
7:43 AM 25.0 °F 12.2 °F 21.9 °F 88% 29.76 in 1.0 mi North 16.1 mph 24.2 mph 0.03 in Snow Light Snow
7:53 AM 24.1 °F 11.0 °F 21.0 °F 88% 29.78 in 1.0 mi NNE 16.1 mph - 0.03 in Snow Light Snow
8:08 AM 24.1 °F 11.5 °F 19.9 °F 84% 29.76 in 1.0 mi NNE 15.0 mph - 0.01 in Snow Snow
8:34 AM 24.1 °F 12.0 °F 19.9 °F 84% 29.75 in 1.0 mi NNE 13.8 mph - 0.02 in Snow Snow
8:53 AM 24.1 °F 10.1 °F 19.9 °F 84% 29.77 in 0.5 mi NNE 18.4 mph - 0.03 in Snow Snow
9:53 AM 21.9 °F 8.7 °F 19.0 °F 89% 29.78 in 0.2 mi NNE 15.0 mph - 0.04 in Fog , Snow Heavy Snow
10:53 AM 21.9 °F 6.2 °F 18.0 °F 85% 29.78 in 0.2 mi NNE 21.9 mph 27.6 mph 0.02 in Fog , Snow Snow
11:02 AM 21.9 °F 5.1 °F 18.0 °F 85% 29.75 in 0.5 mi North 25.3 mph 32.2 mph 0.00 in Fog , Snow Snow
11:38 AM 21.0 °F 5.0 °F 17.1 °F 85% 29.75 in 0.5 mi North 21.9 mph 33.4 mph 0.01 in Fog , Snow Snow
11:53 AM 19.9 °F 3.2 °F 16.0 °F 85% 29.78 in 0.8 mi NNE 23.0 mph 32.2 mph 0.01 in Snow Light Snow
12:30 PM 19.9 °F 6.2 °F 17.1 °F 89% 29.75 in 0.2 mi North 15.0 mph 25.3 mph 0.00 in Fog , Snow Snow
12:53 PM 19.9 °F 5.2 °F 15.1 °F 81% 29.77 in 0.5 mi North 17.3 mph 33.4 mph 0.00 in Snow Snow
1:01 PM 19.9 °F 6.2 °F 15.1 °F 81% 29.74 in 0.5 mi NNE 15.0 mph 25.3 mph 0.00 in Snow Snow
1:16 PM 19.9 °F 4.8 °F 15.1 °F 81% 29.75 in 0.5 mi North 18.4 mph 29.9 mph 0.00 in Snow Snow
1:34 PM 19.0 °F 2.0 °F 14.0 °F 81% 29.75 in 0.5 mi North 23.0 mph 28.8 mph 0.01 in Snow Snow
1:53 PM 19.0 °F 3.2 °F 14.0 °F 81% 29.78 in 0.5 mi North 19.6 mph 26.5 mph 0.01 in Snow Snow
2:14 PM 19.0 °F 3.6 °F 14.0 °F 81% 29.76 in 0.8 mi North 18.4 mph 31.1 mph 0.00 in Snow Light Snow
2:31 PM 19.0 °F 3.2 °F 14.0 °F 81% 29.77 in 0.8 mi North 19.6 mph 27.6 mph 0.00 in Snow Light Snow
2:44 PM 19.0 °F 3.6 °F 12.9 °F 77% 29.78 in 1.2 mi North 18.4 mph 28.8 mph 0.00 in Snow Light Snow
2:53 PM 19.0 °F 4.0 °F 12.9 °F 77% 29.81 in 1.2 mi North 17.3 mph - 0.00 in Snow Light Snow
3:11 PM 18.0 °F 2.2 °F 12.9 °F 81% 29.79 in 0.8 mi NNE 18.4 mph - 0.00 in Snow Light Snow
3:27 PM 19.0 °F 6.8 °F 14.0 °F 81% 29.80 in 1.0 mi North 11.5 mph - 0.00 in Snow Light Snow
3:34 PM 18.0 °F 3.6 °F 12.9 °F 81% 29.80 in 1.0 mi North 15.0 mph 20.7 mph 0.00 in Snow Light Snow
3:45 PM 18.0 °F 4.2 °F 12.9 °F 81% 29.81 in 1.5 mi North 13.8 mph - 0.00 in Snow Light Snow
3:53 PM 18.0 °F 4.8 °F 12.9 °F 81% 29.85 in 0.8 mi North 12.7 mph - 0.00 in Snow Light Snow
4:48 PM 17.6 °F 4.3 °F 10.4 °F 73% 29.86 in 1.5 mi North 12.7 mph - 0.00 in Snow Light Snow
4:53 PM 17.1 °F 2.0 °F 9.0 °F 71% 29.90 in 2.0 mi North 16.1 mph - 0.00 in Snow Light Snow
5:53 PM 15.1 °F 1.1 °F 8.1 °F 74% 29.95 in 2.0 mi NNW 12.7 mph - 0.00 in Snow Light Snow
6:00 PM 15.1 °F 1.1 °F 8.1 °F 74% 29.92 in 5.0 mi NNW 12.7 mph - 0.00 in Snow Light Snow
6:53 PM 14.0 °F 2.0 °F 5.0 °F 67% 29.99 in 8.0 mi North 9.2 mph - 0.00 in Snow Light Snow
6:56 PM 14.0 °F 2.0 °F 6.1 °F 71% 29.95 in 2.0 mi North 9.2 mph - 0.00 in Snow Light Snow
7:03 PM 15.1 °F 4.2 °F 5.0 °F 64% 29.95 in 1.8 mi NNW 8.1 mph - 0.00 in Snow Light Snow
7:11 PM 15.1 °F 4.2 °F 5.0 °F 64% 29.95 in 9.0 mi NNW 8.1 mph - 0.00 in   Overcast
7:53 PM 14.0 °F 1.2 °F 3.9 °F 64% 30.00 in 8.0 mi North 10.4 mph - 0.00 in Snow Light Snow
8:53 PM 12.9 °F -2.2 °F 1.0 °F 59% 30.01 in 10.0 mi NNW 13.8 mph - 0.00 in   Overcast
9:53 PM 12.0 °F -1.3 °F -0.9 °F 56% 30.03 in 10.0 mi North 10.4 mph - 0.00 in   Overcast
10:41 PM 10.9 °F -3.4 °F -0.0 °F 61% 29.99 in 10.0 mi NNW 11.5 mph - 0.00 in   Overcast
10:53 PM 10.0 °F -5.9 °F -0.9 °F 61% 30.04 in 10.0 mi NNW 13.8 mph - 0.00 in   Overcast
11:16 PM 9.0 °F -6.6 °F -2.0 °F 61% 29.99 in 10.0 mi NNW 12.7 mph - 0.00 in   Overcast
11:53 PM 8.1 °F -5.3 °F -2.9 °F 61% 30.04 in 10.0 mi North 9.2 mph - 0.00 in   Overcast